Location: K�ln
(50.9455°N, 6.9544°E)
Time: 12:21:18
(UTC+01:00)

ISS - Visible Passes

Search period start: 24 November 2017 00:00
Search period end: 04 December 2017 00:00
Orbit: 402 x 407 km, 51.6° (Epoch: 24 November)

Date Brightness Start Highest point End Pass type
(mag) Time Alt. Az. Time Alt. Az. Time Alt. Az.
27 Nov -0.9 19:07:48 10° SSW 19:07:51 10° SSW 19:07:51 10° SSW visible
28 Nov -1.5 18:16:36 10° SSE 18:17:50 13° SE 18:17:50 13° SE visible
29 Nov -1.9 18:58:45 10° SW 19:00:25 24° SSW 19:00:25 24° SSW visible
30 Nov -2.3 18:06:52 10° SSW 18:09:32 23° SE 18:10:15 21° SE visible
30 Nov -0.6 19:42:24 10° WSW 19:42:54 14° WSW 19:42:54 14° WSW visible
01 Dec -1.6 17:15:25 10° S 17:17:22 15° SE 17:19:19 10° ESE visible
01 Dec -3.0 18:50:06 10° WSW 18:52:40 45° SSW 18:52:40 45° SSW visible
02 Dec -3.0 17:57:54 10° SW 18:01:00 39° SSE 18:02:23 25° E visible
02 Dec -0.9 19:34:03 10° W 19:35:02 18° W 19:35:02 18° W visible
03 Dec -2.3 17:05:54 10° SSW 17:08:43 26° SSE 17:11:32 10° E visible
03 Dec -3.8 18:41:38 10° WSW 18:44:42 75° SW 18:44:42 75° SW visible
